Find Local Weather

World > North America > United States > New Jersey

Sayreville, New Jersey Regional Weather

Lat: 40.46N, Lon: 74.36W
Wx Zone: NJZ012
Feedback

Sayreville, NJ Regional Weather

Expires:201905251300;;434513
ASUS41 KPHI 251212
RWRPHI

REGIONAL WEATHER ROUNDUP
NATIONAL WEATHER SERVICE MOUNT HOLLY NJ
800 AM EDT SAT MAY 25 2019

NOTE:  "FAIR" INDICATES FEW OR NO CLOUDS BELOW 12,000 FEET WITH NO
SIGNIFICANT WEATHER AND/OR OBSTRUCTIONS TO VISIBILITY.

 * = STATION DOES NOT REPORT PRECIPITATION (E.G. RAIN, SNOW, ETC.) 
        OR FOG.


NJZ001>014-251300-
NORTHERN NEW JERSEY
  
CITY           SKY/WX    TMP DP  RH WIND       PRES   REMARKS
SUSSEX         FAIR      55  54  96 CALM      30.24R                  
ANDOVER*         N/A     57  52  83 CALM      30.23R                  
MORRISTOWN     MOSUNNY   59  54  82 SW6       30.24R                  
NEWARK         PTSUNNY   60  50  69 S8        30.24R                  
TETERBORO      FAIR      60  51  72 SW7       30.23R                  
CALDWELL       FAIR      60  52  74 VRB5      30.24R                  
SOMERVILLE     FAIR      58  52  80 VRB5      30.23R                  
ALLAIRE*       FAIR      59  49  69 S7        30.25R                  
TOMS RIVER*    FAIR      61  53  75 S7        30.25R                  

$$

SKY/WX - Weather  TMP - Temperature  DP - Dew Point  RH - Relative Humidity
WIND - Wind Direction/Speed PRES - Barometric Pressure VSB - Visibility
WCI - Wind Chill Index E13G22 Wind - East Wind 13 mph/Gusts of 22 mph